This is the latest recevied weather packets stored in our database for station/object DG3RAP-11. If no packets are shown the sender has not sent any weather packets the latest 10 day(s).
| Time | Temp. | Humidity | Pressure | Rain* | Wind** | Luminosity | Snow |
|---|---|---|---|---|---|---|---|
| 1777772163 | 13.89° C | 42% | 1016.1 hPa | 0 mm | - | - | - |
| 1777771623 | 13.89° C | 42% | 1016.3 hPa | 0 mm | - | - | - |
| 1777771083 | 13.89° C | 41% | 1016.3 hPa | 0 mm | - | - | - |
| 1777770543 | 13.89° C | 41% | 1016.3 hPa | 0 mm | - | - | - |
| 1777770003 | 14.44° C | 40% | 1016.3 hPa | 0 mm | - | - | - |
| 1777769643 | 14.44° C | 40% | 1016.5 hPa | 0 mm | - | - | - |
| 1777769103 | 14.44° C | 40% | 1016.5 hPa | 0 mm | - | - | - |
| 1777768563 | 14.44° C | 39% | 1016.6 hPa | 0 mm | - | - | - |
| 1777768023 | 14.44° C | 39% | 1016.4 hPa | 0 mm | - | - | - |
| 1777767483 | 14.44° C | 39% | 1016.4 hPa | 0 mm | - | - | - |
| 1777766943 | 13.89° C | 40% | 1016.6 hPa | 0 mm | - | - | - |
| 1777766403 | 13.89° C | 42% | 1016.6 hPa | 0 mm | - | - | - |
| 1777766043 | 13.89° C | 43% | 1016.8 hPa | 0 mm | - | - | - |
| 1777765503 | 13.33° C | 44% | 1016.8 hPa | 0 mm | - | - | - |
| 1777764963 | 13.33° C | 43% | 1016.7 hPa | 0 mm | - | - | - |
| 1777764423 | 13.89° C | 43% | 1017 hPa | 0 mm | - | - | - |
| 1777763883 | 13.89° C | 43% | 1017 hPa | 0 mm | - | - | - |
| 1777763343 | 13.89° C | 43% | 1017 hPa | 0 mm | - | - | - |
| 1777762803 | 13.89° C | 42% | 1017.1 hPa | 0 mm | - | - | - |
| 1777762443 | 14.44° C | 41% | 1017 hPa | 0 mm | - | - | - |
| 1777761903 | 14.44° C | 41% | 1017.1 hPa | 0 mm | - | - | - |
| 1777761363 | 14.44° C | 42% | 1017.2 hPa | 0 mm | - | - | - |
| 1777760823 | 13.33° C | 46% | 1017.1 hPa | 0 mm | - | - | - |
| 1777760283 | 13.33° C | 47% | 1017.3 hPa | 0 mm | - | - | - |
| 1777759743 | 13.33° C | 47% | 1017 hPa | 0 mm | - | - | - |
* Rain latest hour (hover to see other rain measurements)
** Current wind speed in m/s (hover to see current wind gust speed)